This is the latest recevied weather packets stored in our database for station/object KP4FJC. If no packets are shown the sender has not sent any weather packets the latest 10 day(s).
| Time | Temp. | Humidity | Pressure | Rain* | Wind** | Luminosity | Snow |
|---|---|---|---|---|---|---|---|
| 1777924952 | 32.22° C | 63% | 1015.1 hPa | 0 mm | - | 477 W/m² | - |
| 1777924649 | 31.67° C | 64% | 1015.2 hPa | 0 mm | - | 498 W/m² | - |
| 1777924345 | 31.67° C | 64% | 1015.4 hPa | 0 mm | - | 518 W/m² | - |
| 1777924042 | 31.67° C | 64% | 1015.1 hPa | 0 mm | - | 537 W/m² | - |
| 1777923738 | 31.67° C | 63% | 1015.2 hPa | 0 mm | - | 558 W/m² | - |
| 1777923435 | 31.67° C | 62% | 1015.4 hPa | 0 mm | - | 573 W/m² | - |
| 1777923132 | 31.67° C | 62% | 1015.4 hPa | 0 mm | - | 597 W/m² | - |
| 1777922830 | 32.22° C | 62% | 1015.1 hPa | 0 mm | - | 618 W/m² | - |
| 1777922528 | 31.67° C | 64% | 1015.4 hPa | 0 mm | - | 648 W/m² | - |
| 1777922227 | 32.22° C | 62% | 1015.5 hPa | 0 mm | - | 692 W/m² | - |
| 1777921923 | 32.22° C | 60% | 1015.2 hPa | 0 mm | - | 704 W/m² | - |
| 1777921618 | 32.22° C | 60% | 1015.6 hPa | 0 mm | - | 688 W/m² | - |
| 1777921314 | 32.22° C | 60% | 1015.3 hPa | 0 mm | - | 712 W/m² | - |
| 1777921011 | 32.78° C | 59% | 1015.7 hPa | 0 mm | - | 730 W/m² | - |
| 1777920707 | 32.22° C | 59% | 1015.6 hPa | 0 mm | - | 748 W/m² | - |
| 1777920404 | 32.78° C | 59% | 1015.6 hPa | 0 mm | - | 771 W/m² | - |
| 1777920093 | 32.78° C | 55% | 1015.6 hPa | 0 mm | - | 815 W/m² | - |
| 1777919791 | 33.33° C | 54% | 1015.8 hPa | 0 mm | - | 797 W/m² | - |
| 1777919488 | 32.78° C | 55% | 1015.7 hPa | 0 mm | - | 802 W/m² | - |
| 1777919186 | 33.33° C | 54% | 1015.8 hPa | 0 mm | - | 821 W/m² | - |
| 1777918883 | 32.78° C | 54% | 1016 hPa | 0 mm | - | 860 W/m² | - |
| 1777918580 | 32.78° C | 55% | 1015.9 hPa | 0 mm | - | 858 W/m² | - |
| 1777918278 | 32.78° C | 55% | 1015.9 hPa | 0 mm | - | 863 W/m² | - |
| 1777917977 | 32.22° C | 54% | 1016 hPa | 0 mm | - | 877 W/m² | - |
| 1777917675 | 32.22° C | 55% | 1016.2 hPa | 0 mm | - | 868 W/m² | - |
* Rain latest hour (hover to see other rain measurements)
** Current wind speed in m/s (hover to see current wind gust speed)